Tracking 19796 objects as of 19-Jul-2019
HD Live streaming from Space Station
objects crossing your sky now

LEMUR 2 CUBECHEESE


LEMUR 2 CUBECHEESE is no longer on orbit
LEMUR 2 CUBECHEESE is classified as:


NORAD ID: 41597
Int'l Code: 2016-019D
Perigee: N/A
Apogee: N/A
Inclination: N/A
Period: N/A
Semi major axis: N/A
RCS: N/A
Launch date: March 23, 2016
Source: United States (US)
Launch site: ()
Decay date: 2017-03-06
aabbcc
Your satellite tracking list
Your tracking list is empty




NASA's NSSDC Master Catalog

Two Line Element Set (TLE):
1 41597U 16019D   17065.40631615  .17439871  12840-4  24211-3 0  9990
2 41597  51.5883 152.6675 0013907 342.2461  19.4783 16.47903378 40613
Source of the keplerian elements: AFSPC